Portada
METAR-TAF:

METAR-TAF

Aeropuertos :

Johnson County Executive Airport

Olathe, Kansas, Estados Unidos

latitud: 38-51-00N, longitud: 094-44-21W, altitud: 334 m

Observación

El informe se hizo hace 57 minutos, a las 03:53 UTC
Viento 4 kt del sur-suroeste
Temperatura -3°C
Humedad 100%
Presión 1021 hPa
Visibilidad: 12.9 km
Cielo despejado

METAR: KOJC 040353Z AUTO 20004KT 8SM CLR M03/M03 A3014 RMK AO2 SLP218 I1000 T10281028 $

Hora: 22:50 (04:50 UTC)


TAF: falta

Observaciones y pronósticos meteorológicos de más de 4000 aeropuertos (mensajes METAR y TAF).

Los puntos amarillos y rojos representan las estaciones disponibles.

Ponga el ratón en el punto deseado para ver el nombre de la estación.

Haga clic para ver las observaciones y los pronósticos meteorológicos.

Para cambiar el mapa : haga clic en los botones verdes con una cruz de color negro para hacer un zoom, en el botón verde con un guión para alejar o en las flechas verdes para mapas adyacentes.


METAR-TAF: